VYA605 ENAT-LQSA

Flight info

Callsign VYA605
Flight time 3h 21m
Altitude 37000
Route LUVED DCT ARJUD DCT ELBOG/N0470F390 DCT UVATI DCT ROGTU DCT NISIX/N0465F380 DCT GELDA/N0461F400 L59 VAGVO/N0460F390 DCT NIKMI/N0460F400 N191 GRUDA DCT MIXAT/N0455F390 T720 REGLI/N0455F400 DCT XENAK DCT KOPRY/N0453F390 DCT BOSNA
Aircraft CL60/M-SADE3FGHIJ3J4J7P2RWXY/HB1D1

Departure

Time 2026-04-27 14:00
Airport Alta Airport (ENAT)

Arrival

Time 2026-04-27 17:22
Airport Sarajevo International Airport (LQSA)
Time Latitude Longitude Altitude Speed Heading
2026-04-27 13:42 69.97657 23.35666 3 ft 0 kts 248°
2026-04-27 13:57 69.97657 23.35665 3 ft 0 kts 249°
2026-04-27 13:57 69.97675 23.35700 3 ft 8 kts 79°
2026-04-27 13:57 69.97687 23.35892 3 ft 10 kts 91°
2026-04-27 13:57 69.97678 23.36158 2 ft 15 kts 75°
2026-04-27 13:58 69.97712 23.36468 2 ft 17 kts 70°
2026-04-27 13:58 69.97684 23.36815 2 ft 19 kts 121°
2026-04-27 13:58 69.97607 23.37180 2 ft 22 kts 121°
2026-04-27 13:58 69.97520 23.37600 1 ft 25 kts 119°
2026-04-27 13:59 69.97424 23.38073 0 ft 28 kts 121°
2026-04-27 13:59 69.97311 23.38600 0 ft 31 kts 120°
2026-04-27 13:59 69.97257 23.38945 -1 ft 10 kts 116°
2026-04-27 13:59 69.97238 23.38948 -1 ft 4 kts 286°
2026-04-27 14:00 69.97323 23.38545 0 ft 58 kts 302°
2026-04-27 14:00 69.97680 23.36819 3 ft 136 kts 301°
2026-04-27 14:00 69.98208 23.34219 606 ft 154 kts 305°
2026-04-27 14:00 69.98787 23.31624 1466 ft 163 kts 304°
2026-04-27 14:01 69.99380 23.28740 2491 ft 171 kts 303°
2026-04-27 14:01 69.99947 23.25773 3626 ft 173 kts 297°
2026-04-27 14:01 70.00143 23.22412 4749 ft 180 kts 269°
2026-04-27 14:01 69.99648 23.18735 5356 ft 225 kts 234°
2026-04-27 14:02 69.98285 23.15799 6117 ft 256 kts 216°
2026-04-27 14:02 69.96727 23.13094 7112 ft 269 kts 216°
2026-04-27 14:02 69.95110 23.10256 8256 ft 276 kts 216°
2026-04-27 14:02 69.93481 23.07357 9363 ft 283 kts 216°
2026-04-27 14:03 69.91799 23.04354 10500 ft 288 kts 216°
2026-04-27 14:03 69.90111 23.01336 11642 ft 292 kts 215°
2026-04-27 14:03 69.88386 22.98250 12714 ft 297 kts 214°
2026-04-27 14:03 69.86611 22.95074 13762 ft 300 kts 214°
2026-04-27 14:04 69.84837 22.91901 14748 ft 305 kts 213°
2026-04-27 14:04 69.82967 22.89059 15650 ft 312 kts 206°
2026-04-27 14:04 69.80946 22.86416 16393 ft 323 kts 206°
2026-04-27 14:04 69.78901 22.83743 17206 ft 330 kts 206°
2026-04-27 14:05 69.76772 22.80963 18057 ft 334 kts 206°
2026-04-27 14:05 69.74674 22.78225 18875 ft 339 kts 206°
2026-04-27 14:05 69.72504 22.75397 19675 ft 343 kts 206°
2026-04-27 14:05 69.70317 22.72551 20446 ft 347 kts 206°
2026-04-27 14:06 69.68113 22.69686 21184 ft 351 kts 206°
2026-04-27 14:06 69.65859 22.66760 21888 ft 355 kts 206°
2026-04-27 14:06 69.63593 22.63825 22552 ft 360 kts 206°
2026-04-27 14:06 69.61305 22.60868 23206 ft 364 kts 206°
2026-04-27 14:07 69.59016 22.57913 23858 ft 368 kts 206°
2026-04-27 14:07 69.56647 22.55081 24498 ft 373 kts 199°
2026-04-27 14:07 69.54087 22.53738 25106 ft 378 kts 187°
2026-04-27 14:07 69.51457 22.52994 25617 ft 382 kts 187°
2026-04-27 14:08 69.48801 22.52220 26141 ft 386 kts 187°
2026-04-27 14:08 69.46094 22.51428 26634 ft 389 kts 187°
2026-04-27 14:08 69.43382 22.50633 27082 ft 393 kts 187°
2026-04-27 14:08 69.40681 22.49840 27495 ft 396 kts 187°
2026-04-27 14:09 69.37917 22.49028 27888 ft 400 kts 187°
2026-04-27 14:09 69.35145 22.48213 28278 ft 403 kts 187°
2026-04-27 14:09 69.32345 22.47391 28641 ft 406 kts 187°
2026-04-27 14:09 69.29527 22.46563 28987 ft 410 kts 187°
2026-04-27 14:10 69.26676 22.45727 29327 ft 413 kts 187°
2026-04-27 14:10 69.23799 22.44884 29653 ft 416 kts 187°
2026-04-27 14:10 69.20896 22.44034 29973 ft 419 kts 187°
2026-04-27 14:10 69.17989 22.43185 30283 ft 422 kts 187°
2026-04-27 14:11 69.15047 22.42327 30599 ft 424 kts 187°
2026-04-27 14:11 69.12109 22.41472 30858 ft 426 kts 187°
2026-04-27 14:11 69.09119 22.40603 31105 ft 429 kts 187°
2026-04-27 14:11 69.06136 22.39738 31345 ft 431 kts 187°
2026-04-27 14:12 69.03159 22.38877 31584 ft 433 kts 187°
2026-04-27 14:12 69.00145 22.38007 31806 ft 435 kts 187°
2026-04-27 14:12 68.97122 22.37137 32045 ft 437 kts 187°
2026-04-27 14:12 68.94074 22.36261 32289 ft 439 kts 187°
2026-04-27 14:13 68.91041 22.35392 32521 ft 441 kts 187°
2026-04-27 14:13 68.87997 22.34522 32738 ft 442 kts 186°
2026-04-27 14:13 68.85080 22.33690 32940 ft 444 kts 186°
2026-04-27 14:13 68.82134 22.32852 33123 ft 446 kts 186°
2026-04-27 14:14 68.79138 22.32002 33288 ft 448 kts 186°
2026-04-27 14:14 68.76009 22.31116 33516 ft 450 kts 186°
2026-04-27 14:14 68.72903 22.30240 33768 ft 451 kts 186°
2026-04-27 14:14 68.69782 22.29362 34036 ft 451 kts 186°
2026-04-27 14:15 68.66619 22.28474 34331 ft 450 kts 186°
2026-04-27 14:15 68.63561 22.27618 34639 ft 448 kts 186°
2026-04-27 14:15 68.60438 22.26746 34922 ft 447 kts 186°
2026-04-27 14:15 68.57338 22.25883 35213 ft 445 kts 186°
2026-04-27 14:16 68.54254 22.25026 35470 ft 445 kts 186°
2026-04-27 14:16 68.51213 22.24183 35677 ft 445 kts 186°
2026-04-27 14:16 68.48121 22.23328 35869 ft 445 kts 186°
2026-04-27 14:16 68.45042 22.22479 36049 ft 446 kts 186°
2026-04-27 14:17 68.41944 22.21627 36220 ft 446 kts 186°
2026-04-27 14:17 68.38865 22.20782 36399 ft 446 kts 186°
2026-04-27 14:17 68.35786 22.19940 36566 ft 447 kts 186°
2026-04-27 14:17 68.32680 22.19093 36732 ft 447 kts 186°
2026-04-27 14:18 68.29579 22.18249 36901 ft 447 kts 186°
2026-04-27 14:18 68.26484 22.17410 37060 ft 447 kts 186°
2026-04-27 14:18 68.23400 22.16575 37211 ft 446 kts 186°
2026-04-27 14:18 68.20271 22.15731 37352 ft 446 kts 186°
2026-04-27 14:19 68.17223 22.14910 37486 ft 446 kts 186°
2026-04-27 14:19 68.14117 22.14076 37619 ft 447 kts 186°
2026-04-27 14:19 68.11028 22.13249 37751 ft 447 kts 186°
2026-04-27 14:19 68.07935 22.12423 37902 ft 447 kts 186°
2026-04-27 14:20 68.04857 22.11603 38027 ft 447 kts 186°
2026-04-27 14:20 68.01756 22.10780 38179 ft 447 kts 186°
2026-04-27 14:20 67.98653 22.09958 38316 ft 447 kts 186°
2026-04-27 14:20 67.95553 22.09138 38457 ft 447 kts 186°
2026-04-27 14:21 67.92432 22.08316 38589 ft 447 kts 186°
2026-04-27 14:21 67.89349 22.07506 38721 ft 447 kts 186°
2026-04-27 14:21 67.86269 22.06698 38856 ft 446 kts 186°
2026-04-27 14:21 67.83197 22.05895 38961 ft 446 kts 186°
2026-04-27 14:22 67.80096 22.05087 39068 ft 446 kts 186°
2026-04-27 14:22 67.73893 22.03475 39148 ft 449 kts 186°
2026-04-27 14:23 67.67615 22.01853 39151 ft 454 kts 186°
2026-04-27 14:23 67.61318 22.00236 39147 ft 459 kts 186°
2026-04-27 14:24 67.54900 21.98596 39145 ft 463 kts 186°
2026-04-27 14:24 67.48457 21.96960 39151 ft 467 kts 186°
2026-04-27 14:25 67.41977 21.95323 39150 ft 471 kts 186°
2026-04-27 14:25 67.35415 21.93860 39152 ft 475 kts 185°
2026-04-27 14:26 67.28787 21.92489 39149 ft 478 kts 185°
2026-04-27 14:26 67.22129 21.91114 39143 ft 482 kts 185°
2026-04-27 14:27 67.15449 21.89739 39152 ft 484 kts 185°
2026-04-27 14:27 67.08712 21.88357 39154 ft 486 kts 185°
2026-04-27 14:28 67.01917 21.86969 39160 ft 488 kts 185°
2026-04-27 14:28 66.95133 21.85589 39161 ft 490 kts 185°
2026-04-27 14:29 66.88332 21.84212 39159 ft 491 kts 185°
2026-04-27 14:29 66.81498 21.82835 39160 ft 492 kts 185°
2026-04-27 14:30 66.74705 21.81474 39157 ft 493 kts 185°
2026-04-27 14:30 66.67860 21.80109 39155 ft 494 kts 185°
2026-04-27 14:31 66.60993 21.78747 39158 ft 494 kts 185°
2026-04-27 14:31 66.54169 21.77400 39157 ft 495 kts 185°
2026-04-27 14:32 66.47317 21.76055 39157 ft 496 kts 185°
2026-04-27 14:32 66.40438 21.74712 39164 ft 497 kts 185°
2026-04-27 14:33 66.33548 21.73374 39165 ft 497 kts 185°
2026-04-27 14:33 66.26632 21.72039 39174 ft 498 kts 185°
2026-04-27 14:34 66.19679 21.70703 39172 ft 499 kts 185°
2026-04-27 14:34 66.12765 21.69382 39173 ft 500 kts 185°
2026-04-27 14:35 66.05872 21.68072 39173 ft 501 kts 185°
2026-04-27 14:35 65.98853 21.66746 39168 ft 502 kts 185°
2026-04-27 14:36 65.91905 21.65441 39168 ft 503 kts 185°
2026-04-27 14:36 65.84911 21.64133 39174 ft 504 kts 185°
2026-04-27 14:37 65.77951 21.62839 39171 ft 504 kts 185°
2026-04-27 14:37 65.70956 21.61546 39177 ft 505 kts 185°
2026-04-27 14:38 65.63959 21.60259 39168 ft 506 kts 185°
2026-04-27 14:38 65.56929 21.58973 39164 ft 506 kts 185°
2026-04-27 14:39 65.49876 21.57689 39163 ft 507 kts 185°
2026-04-27 14:39 65.42812 21.56411 39161 ft 508 kts 185°
2026-04-27 14:40 65.35761 21.55142 39163 ft 509 kts 185°
2026-04-27 14:40 65.28728 21.53883 39151 ft 510 kts 185°
2026-04-27 14:41 65.21670 21.52626 39149 ft 511 kts 185°
2026-04-27 14:41 65.14545 21.51350 39158 ft 511 kts 186°
2026-04-27 14:42 65.07443 21.50010 39161 ft 512 kts 186°
2026-04-27 14:42 65.00326 21.48675 39156 ft 513 kts 186°
2026-04-27 14:43 64.93249 21.47355 39156 ft 514 kts 186°
2026-04-27 14:43 64.86083 21.46026 39160 ft 515 kts 186°
2026-04-27 14:44 64.78888 21.44698 39161 ft 515 kts 186°
2026-04-27 14:44 64.71770 21.43392 39162 ft 516 kts 185°
2026-04-27 14:45 64.64611 21.42085 39165 ft 516 kts 186°
2026-04-27 14:45 64.57508 21.40796 39166 ft 516 kts 186°
2026-04-27 14:46 64.50314 21.39497 39166 ft 517 kts 186°
2026-04-27 14:46 64.43155 21.38211 39158 ft 517 kts 186°
2026-04-27 14:47 64.35945 21.36923 39154 ft 518 kts 186°
2026-04-27 14:47 64.28764 21.35647 39150 ft 518 kts 186°
2026-04-27 14:48 64.21601 21.34381 39150 ft 518 kts 185°
2026-04-27 14:48 64.10789 21.32482 39150 ft 519 kts 185°
2026-04-27 14:49 64.03653 21.31237 39152 ft 519 kts 185°
2026-04-27 14:49 63.96456 21.29987 39149 ft 519 kts 185°
2026-04-27 14:50 63.89276 21.28747 39148 ft 519 kts 185°
2026-04-27 14:50 63.82077 21.27511 39149 ft 519 kts 185°
2026-04-27 14:51 63.74914 21.26286 39149 ft 519 kts 185°
2026-04-27 14:51 63.67716 21.25063 39144 ft 519 kts 185°
2026-04-27 14:52 63.60545 21.23850 39148 ft 519 kts 185°
2026-04-27 14:52 63.53397 21.22647 39146 ft 519 kts 185°
2026-04-27 14:53 63.46221 21.21445 39154 ft 519 kts 185°
2026-04-27 14:53 63.38981 21.20240 39145 ft 519 kts 185°
2026-04-27 14:54 63.31776 21.19264 39148 ft 520 kts 184°
2026-04-27 14:54 63.24574 21.18348 39150 ft 520 kts 184°
2026-04-27 14:55 63.17359 21.17431 39146 ft 521 kts 184°
2026-04-27 14:55 63.10113 21.16513 39152 ft 520 kts 184°
2026-04-27 14:56 63.02874 21.15598 39151 ft 520 kts 184°
2026-04-27 14:56 62.95619 21.14685 39143 ft 521 kts 184°
2026-04-27 14:57 62.88380 21.13777 39148 ft 521 kts 184°
2026-04-27 14:57 62.81207 21.12882 39144 ft 521 kts 184°
2026-04-27 14:58 62.73947 21.11979 39145 ft 521 kts 184°
2026-04-27 14:58 62.66672 21.11079 39137 ft 521 kts 184°
2026-04-27 14:59 62.59460 21.10191 39138 ft 521 kts 184°
2026-04-27 14:59 62.52193 21.09299 39141 ft 522 kts 184°
2026-04-27 15:00 62.44976 21.08419 39142 ft 522 kts 184°
2026-04-27 15:00 62.37741 21.07541 39139 ft 522 kts 184°
2026-04-27 15:01 62.30504 21.06666 39141 ft 522 kts 184°
2026-04-27 15:01 62.23286 21.05798 39139 ft 522 kts 184°
2026-04-27 15:02 62.16066 21.04934 39139 ft 523 kts 184°
2026-04-27 15:02 62.08822 21.04072 39159 ft 522 kts 184°
2026-04-27 15:03 62.01557 21.03211 39158 ft 522 kts 184°
2026-04-27 15:03 61.94368 21.02364 39154 ft 522 kts 184°
2026-04-27 15:04 61.87120 21.01514 39150 ft 522 kts 184°
2026-04-27 15:04 61.79843 21.00664 39150 ft 522 kts 184°
2026-04-27 15:05 61.72647 20.99827 39147 ft 522 kts 185°
2026-04-27 15:05 61.65401 20.98989 39150 ft 522 kts 185°
2026-04-27 15:06 61.58192 20.98159 39148 ft 522 kts 185°
2026-04-27 15:06 61.50938 20.97328 39150 ft 522 kts 185°
2026-04-27 15:07 61.43774 20.95785 39145 ft 521 kts 189°
2026-04-27 15:07 61.36581 20.93867 39142 ft 521 kts 189°
2026-04-27 15:08 61.29427 20.91976 39145 ft 522 kts 189°
2026-04-27 15:08 61.22232 20.90088 39142 ft 522 kts 189°
2026-04-27 15:09 61.15067 20.88219 39141 ft 523 kts 189°
2026-04-27 15:09 61.07862 20.86351 39139 ft 522 kts 189°
2026-04-27 15:10 61.00690 20.84502 39142 ft 523 kts 189°
2026-04-27 15:10 60.93493 20.82655 39140 ft 523 kts 189°
2026-04-27 15:11 60.86295 20.80818 39137 ft 523 kts 189°
2026-04-27 15:11 60.79093 20.78990 39140 ft 523 kts 189°
2026-04-27 15:12 60.71847 20.77159 39145 ft 523 kts 189°
2026-04-27 15:12 60.64661 20.75351 39141 ft 523 kts 189°
2026-04-27 15:13 60.57422 20.73539 39138 ft 523 kts 189°
2026-04-27 15:13 60.50227 20.71746 39144 ft 523 kts 189°
2026-04-27 15:14 60.43003 20.69954 39144 ft 524 kts 189°
2026-04-27 15:14 60.35750 20.68163 39151 ft 524 kts 189°
2026-04-27 15:15 60.28532 20.66388 39145 ft 524 kts 189°
2026-04-27 15:15 60.21281 20.64614 39145 ft 523 kts 189°
2026-04-27 15:16 60.14034 20.62848 39153 ft 523 kts 189°
2026-04-27 15:16 60.06841 20.61103 39141 ft 523 kts 190°
2026-04-27 15:17 59.99609 20.59357 39150 ft 523 kts 189°
2026-04-27 15:17 59.92339 20.57609 39150 ft 524 kts 189°
2026-04-27 15:18 59.85138 20.55886 39159 ft 523 kts 190°
2026-04-27 15:18 59.77957 20.54175 39157 ft 523 kts 190°
2026-04-27 15:19 59.70717 20.52456 39148 ft 524 kts 190°
2026-04-27 15:19 59.63521 20.50756 39163 ft 525 kts 189°
2026-04-27 15:20 59.56279 20.49052 39164 ft 525 kts 190°
2026-04-27 15:20 59.49026 20.47353 39158 ft 525 kts 190°
2026-04-27 15:21 59.41821 20.45673 39166 ft 525 kts 190°
2026-04-27 15:21 59.34558 20.43986 39163 ft 525 kts 190°
2026-04-27 15:22 59.27387 20.41740 39168 ft 523 kts 194°
2026-04-27 15:22 59.20230 20.39018 39171 ft 524 kts 194°
2026-04-27 15:23 59.13114 20.36334 39162 ft 525 kts 194°
2026-04-27 15:23 59.05959 20.33648 39163 ft 525 kts 193°
2026-04-27 15:24 58.98798 20.30974 39166 ft 525 kts 193°
2026-04-27 15:24 58.91629 20.28311 39173 ft 525 kts 193°
2026-04-27 15:25 58.84487 20.25670 39171 ft 524 kts 193°
2026-04-27 15:25 58.77326 20.23034 39176 ft 524 kts 193°
2026-04-27 15:26 58.70156 20.20405 39172 ft 524 kts 194°
2026-04-27 15:26 58.63058 20.17815 39184 ft 524 kts 194°
2026-04-27 15:27 58.55913 20.15218 39188 ft 523 kts 194°
2026-04-27 15:27 58.48767 20.12632 39183 ft 524 kts 194°
2026-04-27 15:28 58.41646 20.10066 39186 ft 524 kts 193°
2026-04-27 15:28 58.34483 20.07495 39194 ft 524 kts 194°
2026-04-27 15:29 58.27362 20.04951 39186 ft 523 kts 194°
2026-04-27 15:29 58.20210 20.02405 39193 ft 523 kts 194°
2026-04-27 15:30 58.13111 19.99889 39197 ft 523 kts 194°
2026-04-27 15:30 58.05966 19.97367 39199 ft 522 kts 194°
2026-04-27 15:31 57.98853 19.94866 39198 ft 523 kts 194°
2026-04-27 15:31 57.91696 19.92359 39203 ft 522 kts 194°
2026-04-27 15:32 57.84559 19.89871 39200 ft 521 kts 194°
2026-04-27 15:32 57.77483 19.87412 39181 ft 522 kts 194°
2026-04-27 15:33 57.70366 19.84950 39206 ft 521 kts 194°
2026-04-27 15:33 57.63247 19.82496 39230 ft 520 kts 194°
2026-04-27 15:34 57.56187 19.80072 39220 ft 519 kts 194°
2026-04-27 15:34 57.49087 19.77644 39219 ft 518 kts 194°
2026-04-27 15:35 57.41982 19.75223 39209 ft 518 kts 194°
2026-04-27 15:35 57.34951 19.72838 39239 ft 517 kts 194°
2026-04-27 15:36 57.27875 19.70446 39231 ft 517 kts 194°
2026-04-27 15:36 57.20844 19.68078 39217 ft 516 kts 194°
2026-04-27 15:37 57.13783 19.65709 39239 ft 516 kts 194°
2026-04-27 15:37 57.06718 19.63348 39225 ft 516 kts 194°
2026-04-27 15:38 56.99694 19.61010 39226 ft 515 kts 194°
2026-04-27 15:38 56.92667 19.58680 39225 ft 515 kts 194°
2026-04-27 15:39 56.85619 19.56207 39221 ft 513 kts 198°
2026-04-27 15:39 56.78707 19.53019 39225 ft 513 kts 198°
2026-04-27 15:40 56.71845 19.49863 39234 ft 513 kts 198°
2026-04-27 15:40 56.64920 19.46692 39227 ft 513 kts 198°
2026-04-27 15:41 56.58015 19.43545 39228 ft 513 kts 198°
2026-04-27 15:41 56.51055 19.40386 39231 ft 513 kts 198°
2026-04-27 15:42 56.44183 19.37281 39229 ft 512 kts 198°
2026-04-27 15:42 56.37250 19.34162 39234 ft 512 kts 197°
2026-04-27 15:43 56.30351 19.31069 39229 ft 512 kts 197°
2026-04-27 15:43 56.23385 19.28541 39232 ft 517 kts 189°
2026-04-27 15:44 56.16206 19.27913 39240 ft 519 kts 185°
2026-04-27 15:44 56.08988 19.27433 39239 ft 519 kts 185°
2026-04-27 15:45 56.01784 19.26945 39246 ft 519 kts 185°
2026-04-27 15:45 55.94577 19.26453 39235 ft 518 kts 185°
2026-04-27 15:46 55.87434 19.25961 39232 ft 517 kts 185°
2026-04-27 15:46 55.80215 19.25462 39230 ft 517 kts 185°
2026-04-27 15:47 55.73035 19.24965 39234 ft 516 kts 185°
2026-04-27 15:47 55.65906 19.24470 39244 ft 517 kts 185°
2026-04-27 15:48 55.58725 19.23972 39244 ft 517 kts 185°
2026-04-27 15:49 55.47983 19.23229 39239 ft 517 kts 185°
2026-04-27 15:49 55.40801 19.22734 39259 ft 516 kts 185°
2026-04-27 15:50 55.33620 19.22239 39246 ft 516 kts 185°
2026-04-27 15:50 55.26497 19.21750 39248 ft 515 kts 185°
2026-04-27 15:51 55.19325 19.21259 39252 ft 515 kts 185°
2026-04-27 15:51 55.12166 19.20771 39248 ft 515 kts 185°
2026-04-27 15:52 55.05054 19.20287 39252 ft 515 kts 185°
2026-04-27 15:52 54.97893 19.19802 39255 ft 514 kts 185°
2026-04-27 15:53 54.90787 19.19321 39253 ft 514 kts 185°
2026-04-27 15:53 54.83633 19.18839 39254 ft 513 kts 185°
2026-04-27 15:54 54.76469 19.18358 39247 ft 513 kts 185°
2026-04-27 15:54 54.69373 19.17884 39247 ft 513 kts 185°
2026-04-27 15:55 54.62264 19.17410 39251 ft 512 kts 185°
2026-04-27 15:55 54.55153 19.16937 39242 ft 512 kts 185°
2026-04-27 15:56 54.48044 19.16466 39252 ft 512 kts 185°
2026-04-27 15:56 54.40870 19.15993 39240 ft 512 kts 185°
2026-04-27 15:57 54.33754 19.15525 39241 ft 511 kts 186°
2026-04-27 15:57 54.26670 19.15061 39244 ft 510 kts 186°
2026-04-27 15:58 54.19618 19.13967 39238 ft 503 kts 196°
2026-04-27 15:58 54.12889 19.10600 39229 ft 500 kts 202°
2026-04-27 15:59 54.06269 19.07025 39242 ft 500 kts 202°
2026-04-27 15:59 53.99610 19.03441 39225 ft 499 kts 202°
2026-04-27 16:00 53.92990 18.99887 39226 ft 498 kts 202°
2026-04-27 16:00 53.86407 18.96364 39221 ft 497 kts 202°
2026-04-27 16:01 53.79799 18.92837 39218 ft 497 kts 202°
2026-04-27 16:01 53.73234 18.89345 39219 ft 497 kts 202°
2026-04-27 16:02 53.66602 18.85827 39222 ft 497 kts 202°
2026-04-27 16:02 53.60018 18.82346 39213 ft 497 kts 202°
2026-04-27 16:03 53.53409 18.78864 39215 ft 497 kts 202°
2026-04-27 16:03 53.46648 18.75941 39207 ft 499 kts 198°
2026-04-27 16:04 53.39877 18.73271 39204 ft 499 kts 198°
2026-04-27 16:04 53.33104 18.70602 39216 ft 498 kts 198°
2026-04-27 16:05 53.26362 18.67950 39201 ft 499 kts 198°
2026-04-27 16:05 53.19590 18.65293 39200 ft 499 kts 198°
2026-04-27 16:06 53.12840 18.62651 39201 ft 498 kts 198°
2026-04-27 16:06 53.06049 18.60000 39190 ft 498 kts 198°
2026-04-27 16:07 52.99284 18.57367 39204 ft 498 kts 198°
2026-04-27 16:07 52.92537 18.54748 39207 ft 498 kts 198°
2026-04-27 16:08 52.85852 18.52160 39194 ft 498 kts 198°
2026-04-27 16:08 52.79115 18.49561 39192 ft 497 kts 198°
2026-04-27 16:09 52.72389 18.46974 39188 ft 497 kts 198°
2026-04-27 16:09 52.62290 18.43105 39192 ft 496 kts 198°
2026-04-27 16:10 52.48799 18.37963 39190 ft 497 kts 198°
2026-04-27 16:11 52.38732 18.34148 39191 ft 497 kts 197°
2026-04-27 16:12 52.28777 18.30393 39187 ft 497 kts 197°
2026-04-27 16:13 52.18622 18.26580 39190 ft 497 kts 197°
2026-04-27 16:13 52.08498 18.22797 39192 ft 497 kts 197°
2026-04-27 16:14 51.95030 18.17792 39193 ft 496 kts 197°
2026-04-27 16:15 51.81673 18.12859 39190 ft 496 kts 197°
2026-04-27 16:16 51.68200 18.07913 39192 ft 497 kts 197°
2026-04-27 16:17 51.54696 18.02987 39209 ft 495 kts 197°
2026-04-27 16:18 51.40904 18.00751 39195 ft 504 kts 184°
2026-04-27 16:19 51.33867 18.00707 39203 ft 504 kts 184°
2026-04-27 16:20 51.19817 18.00608 39209 ft 503 kts 185°
2026-04-27 16:21 51.09280 18.00528 39207 ft 503 kts 184°
2026-04-27 16:22 50.95255 18.00416 39210 ft 505 kts 184°
2026-04-27 16:22 50.84734 18.00330 39201 ft 505 kts 184°
2026-04-27 16:23 50.74256 18.00244 39206 ft 505 kts 184°
2026-04-27 16:24 50.67231 18.00187 39200 ft 505 kts 184°
2026-04-27 16:25 50.53154 18.00071 39207 ft 505 kts 185°
2026-04-27 16:26 50.39052 17.99956 39197 ft 505 kts 185°
2026-04-27 16:27 50.24976 17.99836 39184 ft 504 kts 185°
2026-04-27 16:28 50.07366 17.99686 39189 ft 504 kts 185°
2026-04-27 16:28 50.00430 17.98589 39186 ft 495 kts 198°
2026-04-27 16:29 49.90347 17.94807 39184 ft 495 kts 198°
2026-04-27 16:30 49.77030 17.89825 39184 ft 496 kts 198°
2026-04-27 16:31 49.60204 17.83562 39183 ft 494 kts 198°
2026-04-27 16:32 49.50175 17.79845 39169 ft 494 kts 198°
2026-04-27 16:33 49.40097 17.76125 39150 ft 495 kts 198°
2026-04-27 16:33 49.33360 17.73646 39164 ft 494 kts 198°
2026-04-27 16:34 49.26649 17.71184 39174 ft 494 kts 198°
2026-04-27 16:34 49.19942 17.68729 39156 ft 495 kts 198°
2026-04-27 16:35 49.13170 17.66258 39162 ft 495 kts 198°
2026-04-27 16:36 49.03110 17.62599 39157 ft 495 kts 198°
2026-04-27 16:36 48.96385 17.60162 39162 ft 494 kts 198°
2026-04-27 16:37 48.89673 17.57735 39161 ft 493 kts 198°
2026-04-27 16:37 48.83123 17.55374 39156 ft 494 kts 198°
2026-04-27 16:38 48.76392 17.52954 39158 ft 494 kts 198°
2026-04-27 16:38 48.69709 17.50557 39154 ft 495 kts 198°
2026-04-27 16:39 48.62962 17.48145 39154 ft 495 kts 198°
2026-04-27 16:39 48.56235 17.45746 39159 ft 495 kts 198°
2026-04-27 16:40 48.49539 17.43365 39156 ft 495 kts 198°
2026-04-27 16:40 48.42788 17.40970 39154 ft 495 kts 198°
2026-04-27 16:41 48.36044 17.38584 39157 ft 496 kts 198°
2026-04-27 16:41 48.29302 17.36206 39156 ft 496 kts 198°
2026-04-27 16:42 48.22992 17.33986 39154 ft 495 kts 197°
2026-04-27 16:42 48.16261 17.31624 39159 ft 496 kts 197°
2026-04-27 16:43 48.09443 17.29524 39156 ft 499 kts 191°
2026-04-27 16:43 48.02492 17.28260 39158 ft 501 kts 191°
2026-04-27 16:44 47.95576 17.27007 39158 ft 501 kts 191°
2026-04-27 16:44 47.88725 17.25762 39157 ft 501 kts 191°
2026-04-27 16:45 47.82004 17.24540 39156 ft 500 kts 191°
2026-04-27 16:45 47.75039 17.23274 39151 ft 500 kts 191°
2026-04-27 16:46 47.68100 17.22012 39155 ft 500 kts 191°
2026-04-27 16:46 47.61210 17.20762 39159 ft 501 kts 191°
2026-04-27 16:47 47.54250 17.19500 39159 ft 501 kts 191°
2026-04-27 16:47 47.47343 17.18250 39154 ft 500 kts 191°
2026-04-27 16:48 47.40387 17.16994 39152 ft 501 kts 191°
2026-04-27 16:48 47.33448 17.15743 39156 ft 501 kts 190°
2026-04-27 16:49 47.23025 17.13870 39158 ft 501 kts 191°
2026-04-27 16:49 47.16061 17.12622 39155 ft 500 kts 190°
2026-04-27 16:50 47.09130 17.11383 39155 ft 500 kts 190°
2026-04-27 16:50 47.02228 17.10152 39157 ft 500 kts 190°
2026-04-27 16:51 46.95302 17.08920 39153 ft 501 kts 190°
2026-04-27 16:51 46.88434 17.07701 39150 ft 501 kts 190°
2026-04-27 16:52 46.81628 17.06497 39153 ft 501 kts 190°
2026-04-27 16:52 46.74701 17.05274 39158 ft 500 kts 190°
2026-04-27 16:53 46.67774 17.04054 39162 ft 500 kts 190°
2026-04-27 16:53 46.60843 17.02837 39158 ft 499 kts 190°
2026-04-27 16:54 46.53870 17.01615 39156 ft 499 kts 190°
2026-04-27 16:54 46.46999 17.00413 39152 ft 500 kts 190°
2026-04-27 16:55 46.40034 16.99198 39149 ft 500 kts 190°
2026-04-27 16:55 46.33091 16.97991 39155 ft 500 kts 190°
2026-04-27 16:56 46.26145 16.97210 39157 ft 503 kts 181°
2026-04-27 16:56 46.19151 16.98527 39155 ft 506 kts 168°
2026-04-27 16:57 46.12400 17.01438 39155 ft 507 kts 164°
2026-04-27 16:57 46.05642 17.04432 39155 ft 508 kts 164°
2026-04-27 16:58 45.98869 17.07418 39153 ft 508 kts 164°
2026-04-27 16:58 45.92145 17.10369 39153 ft 508 kts 164°
2026-04-27 16:59 45.85464 17.13290 39149 ft 507 kts 164°
2026-04-27 16:59 45.78768 17.16207 39152 ft 506 kts 164°
2026-04-27 17:00 45.68676 17.20585 39144 ft 506 kts 164°
2026-04-27 17:01 45.61861 17.23531 39136 ft 506 kts 164°
2026-04-27 17:01 45.58496 17.24982 38888 ft 510 kts 164°
2026-04-27 17:01 45.55067 17.26459 38216 ft 507 kts 164°
2026-04-27 17:01 45.51710 17.27903 37545 ft 501 kts 164°
2026-04-27 17:02 45.48360 17.29342 36905 ft 498 kts 164°
2026-04-27 17:02 45.45022 17.30773 36373 ft 498 kts 164°
2026-04-27 17:02 45.41713 17.32190 35753 ft 500 kts 164°
2026-04-27 17:02 45.38387 17.33613 35070 ft 500 kts 163°
2026-04-27 17:03 45.35022 17.35050 34352 ft 500 kts 164°
2026-04-27 17:03 45.31701 17.36467 33744 ft 501 kts 163°
2026-04-27 17:03 45.28328 17.37904 33054 ft 501 kts 163°
2026-04-27 17:03 45.24989 17.39325 32400 ft 498 kts 163°
2026-04-27 17:04 45.21675 17.40734 31739 ft 494 kts 163°
2026-04-27 17:04 45.18404 17.42123 31083 ft 489 kts 163°
2026-04-27 17:04 45.15151 17.43502 30438 ft 484 kts 163°
2026-04-27 17:04 45.11952 17.44857 29798 ft 478 kts 163°
2026-04-27 17:05 45.08787 17.46195 29173 ft 473 kts 163°
2026-04-27 17:05 45.05638 17.47526 28545 ft 469 kts 163°
2026-04-27 17:05 45.02498 17.48850 27916 ft 465 kts 163°
2026-04-27 17:05 44.99412 17.50151 27306 ft 460 kts 163°
2026-04-27 17:06 44.96343 17.51442 26694 ft 455 kts 163°
2026-04-27 17:06 44.93344 17.52703 26095 ft 451 kts 163°
2026-04-27 17:06 44.90328 17.53970 25495 ft 446 kts 163°
2026-04-27 17:06 44.87399 17.55198 24913 ft 441 kts 163°
2026-04-27 17:07 44.84544 17.56394 24345 ft 437 kts 163°
2026-04-27 17:07 44.81618 17.57619 23763 ft 433 kts 163°
2026-04-27 17:07 44.78767 17.58811 23211 ft 428 kts 163°
2026-04-27 17:07 44.75901 17.60008 22627 ft 424 kts 163°
2026-04-27 17:08 44.73091 17.61180 22061 ft 419 kts 163°
2026-04-27 17:08 44.70292 17.62347 21511 ft 415 kts 163°
2026-04-27 17:08 44.67536 17.63494 20961 ft 410 kts 164°
2026-04-27 17:08 44.64825 17.64622 20423 ft 406 kts 164°
2026-04-27 17:09 44.62138 17.65738 19891 ft 402 kts 165°
2026-04-27 17:09 44.59449 17.66854 19357 ft 398 kts 165°
2026-04-27 17:09 44.56814 17.67947 18832 ft 394 kts 165°
2026-04-27 17:09 44.54196 17.69032 18309 ft 390 kts 165°
2026-04-27 17:10 44.51603 17.70105 17803 ft 386 kts 165°
2026-04-27 17:10 44.49034 17.71167 17288 ft 382 kts 165°
2026-04-27 17:10 44.46492 17.72217 16778 ft 379 kts 165°
2026-04-27 17:10 44.43988 17.73251 16286 ft 375 kts 165°
2026-04-27 17:11 44.41456 17.74295 15771 ft 372 kts 165°
2026-04-27 17:11 44.36564 17.76421 14791 ft 365 kts 159°
2026-04-27 17:11 44.34267 17.77990 14244 ft 363 kts 153°
2026-04-27 17:12 44.29808 17.81251 13295 ft 356 kts 154°
2026-04-27 17:12 44.27636 17.82830 12830 ft 348 kts 153°
2026-04-27 17:12 44.25512 17.84372 12379 ft 341 kts 154°
2026-04-27 17:13 44.23420 17.85887 11927 ft 334 kts 154°
2026-04-27 17:13 44.21363 17.87374 11479 ft 327 kts 154°
2026-04-27 17:13 44.19364 17.88818 11054 ft 320 kts 154°
2026-04-27 17:13 44.17396 17.90236 10635 ft 315 kts 154°
2026-04-27 17:14 44.15463 17.91627 10210 ft 309 kts 154°
2026-04-27 17:14 44.13561 17.92994 9797 ft 304 kts 154°
2026-04-27 17:14 44.11677 17.94346 9397 ft 299 kts 154°
2026-04-27 17:14 44.09834 17.95667 8992 ft 294 kts 153°
2026-04-27 17:15 44.08031 17.96958 8613 ft 290 kts 153°
2026-04-27 17:15 44.06234 17.98244 8222 ft 285 kts 153°
2026-04-27 17:15 44.04481 17.99496 7836 ft 281 kts 153°
2026-04-27 17:15 44.02747 18.00733 7479 ft 277 kts 153°
2026-04-27 17:16 44.00999 18.01789 7027 ft 277 kts 161°
2026-04-27 17:16 43.99133 18.02661 6303 ft 284 kts 161°
2026-04-27 17:16 43.97257 18.03536 5841 ft 277 kts 161°
2026-04-27 17:16 43.95447 18.04381 5554 ft 269 kts 161°
2026-04-27 17:17 43.93730 18.05291 5485 ft 263 kts 151°
2026-04-27 17:17 43.92340 18.06913 5414 ft 254 kts 126°
2026-04-27 17:17 43.91475 18.09015 5256 ft 243 kts 116°
2026-04-27 17:18 43.89951 18.13069 4736 ft 231 kts 116°
2026-04-27 17:18 43.89251 18.14942 4431 ft 220 kts 116°
2026-04-27 17:18 43.88554 18.16812 4127 ft 211 kts 115°
2026-04-27 17:18 43.87901 18.18564 3811 ft 195 kts 115°
2026-04-27 17:19 43.87314 18.20134 3601 ft 170 kts 115°
2026-04-27 17:19 43.86801 18.21503 3387 ft 153 kts 115°
2026-04-27 17:19 43.86324 18.22788 3154 ft 146 kts 114°
2026-04-27 17:19 43.85864 18.24030 2950 ft 143 kts 114°
2026-04-27 17:20 43.85431 18.25244 2739 ft 142 kts 115°
2026-04-27 17:20 43.84968 18.26454 2504 ft 141 kts 117°
2026-04-27 17:20 43.84508 18.27659 2343 ft 139 kts 115°
2026-04-27 17:20 43.84074 18.28850 2178 ft 141 kts 117°
2026-04-27 17:21 43.83615 18.30044 1988 ft 140 kts 115°
2026-04-27 17:21 43.83180 18.31221 1813 ft 134 kts 116°
2026-04-27 17:21 43.82745 18.32381 1705 ft 127 kts 115°
2026-04-27 17:21 43.82393 18.33326 1717 ft 85 kts 118°
2026-04-27 17:22 43.82204 18.33830 1726 ft 36 kts 116°
2026-04-27 17:22 43.82114 18.34065 1733 ft 26 kts 117°
2026-04-27 17:22 43.82033 18.34283 1740 ft 24 kts 115°
2026-04-27 17:22 43.81957 18.34494 1745 ft 13 kts 115°
2026-04-27 17:23 43.81969 18.34591 1746 ft 12 kts 39°
2026-04-27 17:23 43.82063 18.34616 1746 ft 16 kts 336°
2026-04-27 17:23 43.82138 18.34481 1742 ft 19 kts 298°
2026-04-27 17:23 43.82204 18.34305 1738 ft 21 kts 296°
2026-04-27 17:24 43.82273 18.34119 1732 ft 22 kts 297°
2026-04-27 17:24 43.82350 18.33911 1725 ft 25 kts 298°
2026-04-27 17:24 43.82403 18.33776 1721 ft 11 kts 298°
2026-04-27 17:24 43.82427 18.33715 1720 ft 7 kts 313°
2026-04-27 17:25 43.82475 18.33727 1720 ft 7 kts 30°
2026-04-27 17:25 43.82498 18.33744 1720 ft 0 kts 28°